Location: Forst
(46.9333°N, 15.4333°E)
Time: 05:56:01
(UTC+00:00)

Cosmos 489 Rocket - Pass Details

Date: 01 December 2020
Orbit: 952 x 984 km, 74.0° (Epoch: 18 January)

Event Time Altitude Azimuth Distance (km) Brightness Sun altitude
Rises 16:34:37 0° 193° (SSW) 3,612 7.9 -13.7°
Reaches altitude 10° 16:37:07 10° 191° (SSW) 2,672 7.2 -14.1°
Maximum altitude 16:43:16 73° 109° (ESE) 1,002 4.4 -15.1°
Drops below altitude 10° 16:49:29 10° 26° (NNE) 2,704 6.4 -16.2°
Enters shadow 16:49:45 - 25° (NNE) 2,805 6.5 -16.2°
